1535065200.22,32782,22.0,74370.0,7.43,-11.77,-12.07,0,*75
1535065201.47,32783,22.0,74370.3,7.43,-11.77,-12.03,0,*70
1535065202.74,32784,22.0,74370.8,7.43,-11.81,-12.07,0,*7A
1535065204.01,32785,22.0,74366.3,7.43,-11.81,-12.07,0,*7B
1535065205.26,32786,22.0,74370.8,7.43,-11.77,-12.03,0,*75
1535065206.53,32787,21.94,74366.5,7.43,-11.81,-12.07,0,*79
1535065207.77,32788,22.0,74370.8,7.41,-11.81,-12.07,0,*74
1535065209.04,32789,22.0,74368.8,7.43,-11.89,-12.15,0,*7C
1535065210.32,32790,22.0,74372.3,7.47,-11.89,-12.11,0,*74
1535065211.59,32791,22.0,74370.0,7.47,-11.77,-12.11,0,*74
1535065212.84,32792,22.0,74368.8,7.47,-11.77,-12.03,0,*74
1535065214.09,32793,22.0,74368.8,7.47,-11.85,-12.03,0,*78
1535065215.34,32794,22.0,74368.0,7.47,-11.89,-12.03,0,*73
1535065216.59,32795,21.94,74370.3,7.47,-11.89,-12.03,0,*72
1535065217.84,32796,21.94,74366.3,7.47,-11.89,-12.03,0,*71
1535065219.11,32797,22.0,74368.8,7.47,-11.85,-12.11,0,*7F
1535065220.36,32798,22.0,74370.8,7.47,-11.85,-12.03,0,*73
1535065221.63,32799,21.94,74364.8,7.47,-11.89,-12.15,0,*79
1535065222.88,32800,21.94,74364.0,7.47,-11.89,-12.03,0,*71
1535065224.15,32801,21.94,74368.5,7.47,-11.85,-12.11,0,*7F
1535065225.4,32802,21.94,74366.3,7.47,-11.85,-12.03,0,*7F
1535065226.65,32803,21.94,74366.0,7.49,-11.85,-12.03,0,*70
1535065227.9,32804,22.0,74368.3,7.47,-11.77,-12.03,0,*74
1535065229.15,32805,21.94,74364.3,7.47,-11.77,-12.03,0,*75
1535065230.4,32806,21.94,74366.0,7.47,-11.89,-12.03,0,*77
1535065231.65,32807,21.94,74364.5,7.47,-11.85,-12.03,0,*7A
1535065232.93,32808,21.94,74364.3,7.49,-11.85,-12.11,0,*78
1535065234.2,32809,22.0,74368.0,7.47,-11.89,-12.15,0,*7F
1535065235.47,32810,21.94,74366.3,7.49,-11.89,-12.11,0,*7D
1535065236.75,32811,22.0,74368.8,7.47,-11.89,-12.11,0,*72
1535065238.02,32812,21.94,74366.0,7.47,-11.89,-12.11,0,*71
1535065239.29,32813,21.94,74366.3,7.47,-11.89,-12.15,0,*74
1535065240.57,32814,21.94,74366.8,7.49,-11.85,-12.11,0,*75
1535065241.84,32815,21.94,74370.5,7.47,-11.85,-12.11,0,*7A
1535065243.12,32816,21.94,74366.3,7.47,-11.85,-12.11,0,*79
1535065244.39,32817,21.94,74368.0,7.49,-11.85,-12.11,0,*76
1535065245.67,32818,21.94,74366.8,7.49,-11.89,-12.11,0,*75
1535065246.95,32819,21.94,74370.5,7.47,-11.85,-12.11,0,*76
1535065248.22,32820,21.94,74368.0,7.47,-11.77,-12.11,0,*71
1535065249.49,32821,22.0,74370.3,7.49,-11.85,-12.15,0,*77
1535065250.77,32822,21.94,74368.0,7.49,-11.89,-12.11,0,*7C
1535065252.05,32823,22.0,74370.3,7.49,-11.85,-12.11,0,*71
1535065253.33,32824,22.0,74370.3,7.49,-11.85,-12.11,0,*76
1535065254.6,32825,22.0,74364.8,7.47,-11.85,-12.11,0,*79
1535065255.87,32826,21.94,74368.8,7.49,-11.85,-12.15,0,*70
1535065257.15,32827,21.94,74368.5,7.49,-11.89,-12.15,0,*7D
1535065258.43,32828,22.0,74370.3,7.49,-11.89,-12.15,0,*72
1535065259.7,32829,22.0,74372.0,7.49,-11.85,-12.15,0,*7F
1535065260.98,32830,21.94,74368.0,7.49,-11.89,-12.15,0,*7B
1535065262.26,32831,21.94,74370.5,7.49,-11.89,-12.11,0,*7E
1535065263.53,32832,22.0,74370.8,7.49,-11.89,-12.11,0,*7D
1535065264.81,32833,21.94,74370.8,7.47,-11.85,-12.15,0,*7A
1535065266.08,32834,21.94,74370.5,7.49,-11.97,-12.15,0,*70
1535065267.36,32835,22.0,74372.8,7.49,-11.89,-12.15,0,*7E
1535065268.63,32836,21.94,74372.0,7.49,-11.89,-12.15,0,*7D
1535065269.9,32837,21.94,74370.3,7.47,-11.85,-12.11,0,*7A
1535065271.18,32838,21.94,74372.0,7.49,-11.85,-12.15,0,*7F
1535065272.46,32839,22.0,74372.3,7.49,-11.97,-12.11,0,*79
1535065273.74,32840,22.0,74372.8,7.49,-11.89,-12.11,0,*78
1535065275.01,32841,21.94,74372.0,7.47,-11.97,-12.11,0,*78
1535065276.28,32842,22.0,74374.5,7.49,-11.89,-12.15,0,*7E
1535065277.56,32843,22.0,74372.3,7.49,-11.97,-12.15,0,*70
1535065278.81,32844,21.94,74368.3,7.49,-12.03,-12.11,0,*7D
1535065280.09,32845,21.94,74368.8,7.49,-11.97,-12.15,0,*76
1535065281.36,32846,21.94,74372.8,7.49,-11.97,-12.15,0,*75
1535065282.61,32847,22.0,74372.8,7.49,-12.03,-12.15,0,*7A
1535065283.89,32848,21.94,74372.3,7.49,-11.97,-12.15,0,*7B
1535065285.11,32849,21.94,74372.8,7.51,-11.97,-12.21,0,*74
1535065286.34,32850,21.94,74372.5,7.49,-12.03,-12.25,0,*7F
1535065287.57,32851,21.94,74374.0,7.51,-11.97,-12.21,0,*7D
1535065288.8,32852,21.94,74374.0,7.51,-11.93,-12.21,0,*7A
1535065290.05,32853,21.94,74370.8,7.49,-11.97,-12.25,0,*72
1535065291.28,32854,21.94,74370.0,7.51,-11.97,-12.21,0,*78
1535065292.51,32855,21.94,74370.3,7.51,-11.97,-12.25,0,*7D
1535065293.73,32856,21.94,74370.0,7.51,-12.07,-12.25,0,*74
1535065294.97,32857,21.94,74374.0,7.51,-11.93,-12.21,0,*7F
1535065296.24,32858,21.94,74372.8,7.49,-11.97,-12.15,0,*7A
1535065297.5,32859,21.94,74374.0,7.49,-11.97,-12.25,0,*78
1535065298.75,32860,22.0,74372.8,7.51,-11.93,-12.11,0,*78
1535065299.98,32861,21.94,74374.5,7.51,-11.97,-12.21,0,*7E
1535065301.24,32862,21.94,74374.0,7.51,-11.93,-12.07,0,*7D
1535065302.52,32863,21.94,74374.0,7.49,-11.97,-12.11,0,*76
1535065303.75,32864,21.94,74374.8,7.51,-11.97,-12.21,0,*7B
1535065304.99,32865,22.0,74378.5,7.47,-12.03,-12.15,0,*74
1535065306.24,32866,22.0,74374.5,7.49,-12.03,-12.15,0,*79
1535065307.46,32867,21.94,74374.8,7.49,-12.03,-12.25,0,*7B
1535065308.72,32868,22.0,74376.5,7.49,-11.97,-12.25,0,*7A
1535065309.94,32869,21.94,74370.0,7.51,-11.85,-12.21,0,*75
1535065311.17,32870,21.94,74374.8,7.49,-12.03,-12.25,0,*7D
1535065312.42,32871,21.94,74374.0,7.49,-11.97,-12.25,0,*72
1535065313.67,32872,21.94,74372.0,7.49,-12.03,-12.15,0,*7C
1535065314.92,32873,21.94,74374.5,7.49,-12.03,-12.15,0,*7D
1535065316.17,32874,21.94,74376.5,7.49,-11.97,-12.25,0,*77
1535065317.42,32875,21.94,74374.8,7.49,-12.03,-12.15,0,*7B
1535065318.65,32876,22.0,74378.8,7.51,-11.97,-12.21,0,*78
1535065319.9,32877,21.94,74376.5,7.49,-11.97,-12.25,0,*74
1535065321.14,32878,21.94,74370.0,7.51,-11.93,-12.21,0,*72
1535065322.36,32879,21.94,74374.5,7.49,-12.03,-12.29,0,*78
1535065323.62,32880,21.94,74372.8,7.49,-12.11,-12.29,0,*7D
1535065324.87,32881,21.94,74372.5,7.49,-12.15,-12.39,0,*79
1535065326.13,32882,21.94,74374.5,7.49,-12.11,-12.25,0,*73
1535065327.35,32883,21.94,74374.8,7.49,-12.03,-12.25,0,*71
1535065328.61,32884,21.94,74372.3,7.49,-12.11,-12.29,0,*79
1535065329.86,32885,21.94,74372.8,7.49,-12.11,-12.29,0,*78
1535065331.12,32886,21.94,74372.5,7.49,-12.15,-12.29,0,*7F
1535065332.38,32887,21.94,74370.0,7.49,-12.15,-12.29,0,*7E
1535065333.6,32888,21.94,74374.8,7.49,-12.03,-12.29,0,*76
1535065334.83,32889,21.94,74374.5,7.49,-12.03,-12.25,0,*7B
1535065336.06,32890,21.94,74370.5,7.49,-12.03,-12.29,0,*7F
1535065337.28,32891,21.94,74374.5,7.47,-12.03,-12.29,0,*70
1535065338.51,32892,22.0,74374.5,7.51,-11.97,-12.21,0,*72
1535065339.73,32893,21.94,74372.8,7.47,-12.03,-12.25,0,*7E
1535065340.95,32894,21.94,74372.8,7.47,-12.03,-12.25,0,*79
1535065342.18,32895,21.94,74372.5,7.49,-12.03,-12.29,0,*7A
1535065343.43,32896,21.94,74378.0,7.49,-12.11,-12.25,0,*76
1535065344.66,32897,21.94,74372.5,7.49,-12.03,-12.25,0,*74
1535065345.89,32898,21.94,74372.3,7.49,-12.03,-12.29,0,*77
1535065347.12,32899,21.94,74374.0,7.49,-12.03,-12.29,0,*76
1535065348.34,32900,21.94,74378.3,7.47,-12.03,-12.25,0,*75
1535065349.58,32901,21.94,74378.8,7.47,-11.97,-12.25,0,*7A
1535065350.81,32902,21.94,74376.3,7.51,-11.97,-12.21,0,*7A
1535065352.03,32903,21.94,74378.8,7.47,-12.03,-12.29,0,*7A
1535065353.29,32904,21.94,74374.0,7.49,-11.97,-12.25,0,*71
1535065354.53,32905,21.94,74374.5,7.47,-12.03,-12.15,0,*73
1535065355.75,32906,21.94,74378.3,7.47,-12.03,-12.29,0,*7F
1535065357.01,32907,21.94,74374.0,7.49,-12.11,-12.29,0,*73
1535065358.26,32908,21.94,74374.3,7.47,-12.11,-12.29,0,*72
1535065359.52,32909,21.94,74378.0,7.49,-12.11,-12.29,0,*7D
1535065360.77,32910,21.94,74374.5,7.49,-12.11,-12.29,0,*75
1535065362.03,32911,21.94,74376.5,7.49,-12.11,-12.29,0,*74
1535065363.28,32912,21.94,74374.3,7.47,-12.15,-12.29,0,*7D
1535065364.5,32913,22.0,74378.0,7.47,-12.03,-12.39,0,*7A
1535065365.75,32914,21.94,74376.0,7.47,-12.11,-12.39,0,*7E
1535065367.0,32915,21.94,74376.3,7.47,-12.11,-12.29,0,*7E
1535065368.25,32916,21.94,74374.0,7.47,-12.15,-12.29,0,*79
1535065369.51,32917,21.94,74376.5,7.47,-12.11,-12.29,0,*7C
1535065370.75,32918,21.94,74374.5,7.47,-12.11,-12.39,0,*72
1535065372.01,32919,21.94,74376.3,7.49,-12.11,-12.25,0,*70
1535065373.28,32920,22.0,74376.8,7.47,-11.97,-12.15,0,*7A
1535065374.5,32921,21.94,74378.3,7.47,-12.03,-12.25,0,*76
1535065375.75,32922,21.94,74378.0,7.43,-12.15,-12.43,0,*76
1535065377.0,32923,21.94,74378.0,7.43,-12.07,-12.29,0,*78
1535065378.22,32924,21.94,74376.5,7.47,-12.03,-12.29,0,*7F
1535065379.47,32925,22.0,74378.0,7.47,-12.11,-12.29,0,*7D
1535065380.72,32926,21.94,74374.5,7.47,-12.11,-12.29,0,*7E
1535065382.0,32927,21.94,74376.3,7.43,-12.15,-12.35,0,*72
1535065383.28,32928,21.94,74376.3,7.43,-12.15,-12.35,0,*7D
1535065384.55,32929,21.94,74376.8,7.43,-12.15,-12.35,0,*7C
1535065385.8,32930,21.94,74374.8,7.43,-12.15,-12.47,0,*71
1535065387.05,32931,21.94,74374.8,7.43,-12.15,-12.43,0,*74
1535065388.3,32932,21.94,74376.5,7.43,-12.07,-12.43,0,*74
1535065389.58,32933,21.94,74376.5,7.43,-12.15,-12.35,0,*77
1535065390.85,32934,21.94,74370.3,7.43,-12.15,-12.35,0,*70
1535065392.11,32935,21.94,74374.8,7.43,-12.21,-12.35,0,*76
1535065393.39,32936,21.94,74372.3,7.43,-12.15,-12.35,0,*72
1535065394.62,32937,21.94,74374.5,7.43,-12.21,-12.43,0,*75
1535065395.86,32938,21.94,74374.3,7.43,-12.15,-12.43,0,*7D
1535065397.12,32939,21.94,74370.8,7.43,-12.21,-12.35,0,*7A
1535065398.35,32940,22.0,74378.8,7.41,-12.21,-12.35,0,*76
1535065399.6,32941,21.94,74374.0,7.43,-12.15,-12.29,0,*7F
1535065400.83,32942,21.94,74374.0,7.43,-12.03,-12.29,0,*7B
1535065402.02,32943,21.94,74372.8,7.41,-12.03,-12.21,0,*70
1535065403.22,32944,21.94,74374.0,7.41,-12.03,-12.29,0,*7F
1535065404.46,32945,21.94,74372.5,7.43,-12.03,-12.15,0,*73
1535065405.69,32946,21.94,74372.3,7.43,-12.03,-12.29,0,*7F
1535065406.94,32947,21.94,74376.0,7.43,-12.07,-12.29,0,*7A
1535065408.19,32948,21.94,74374.5,7.43,-12.07,-12.21,0,*7D
1535065409.41,32949,21.94,74372.5,7.41,-12.07,-12.21,0,*7E
1535065410.66,32950,21.94,74372.8,7.43,-12.03,-12.35,0,*75
1535065411.94,32951,21.94,74376.0,7.43,-12.07,-12.35,0,*70
1535065413.22,32952,21.94,74374.5,7.43,-12.07,-12.35,0,*73
1535065414.5,32953,21.94,74372.3,7.43,-12.07,-12.35,0,*72
1535065415.75,32954,21.94,74372.3,7.43,-12.15,-12.29,0,*7B
1535065417.02,32955,21.94,74372.3,7.43,-12.07,-12.35,0,*74
1535065418.3,32956,21.94,74372.0,7.43,-12.15,-12.35,0,*74
1535065419.58,32957,21.94,74372.5,7.43,-12.07,-12.35,0,*76
1535065420.8,32958,21.94,74374.0,7.41,-12.03,-12.35,0,*7F
1535065422.05,32959,21.94,74376.3,7.43,-12.07,-12.29,0,*75
1535065423.27,32960,21.94,74374.3,7.43,-12.03,-12.29,0,*7B
1535065424.55,32961,21.94,74374.0,7.43,-12.15,-12.35,0,*70
1535065425.83,32962,21.94,74374.0,7.43,-12.15,-12.35,0,*73
1535065427.05,32963,21.94,74372.8,7.41,-12.07,-12.21,0,*76
1535065428.25,32964,21.94,74376.5,7.41,-12.03,-12.29,0,*7D
1535065429.47,32965,21.94,74374.0,7.41,-12.07,-12.21,0,*70
1535065430.7,32966,21.94,74376.3,7.41,-12.07,-12.29,0,*7B
1535065431.95,32967,21.94,74372.8,7.43,-12.07,-12.29,0,*78
1535065433.22,32968,21.94,74374.8,7.43,-12.07,-12.15,0,*78
1535065434.42,32969,21.94,74372.0,7.41,-12.03,-12.29,0,*70
1535065435.64,32970,21.94,74374.0,7.41,-12.07,-12.29,0,*7C
1535065436.89,32971,21.94,74374.5,7.43,-12.03,-12.35,0,*76
1535065438.14,32972,21.94,74374.3,7.43,-12.07,-12.21,0,*74
1535065439.4,32973,21.94,74370.8,7.43,-12.07,-12.29,0,*7D
1535065440.65,32974,21.94,74374.8,7.43,-12.07,-12.29,0,*7A
1535065441.9,32975,21.94,74372.8,7.43,-12.07,-12.29,0,*7B
1535065443.17,32976,21.94,74374.8,7.43,-12.15,-12.35,0,*76
1535065444.45,32977,21.94,74372.5,7.43,-12.07,-12.35,0,*74
1535065445.65,32978,21.94,74374.5,7.41,-12.03,-12.29,0,*70
1535065446.93,32979,21.94,74372.0,7.43,-12.07,-12.35,0,*7A
1535065448.18,32980,21.94,74374.0,7.41,-12.07,-12.35,0,*7E
1535065449.43,32981,21.94,74376.0,7.43,-12.07,-12.21,0,*78
1535065450.68,32982,21.94,74376.5,7.43,-12.07,-12.29,0,*73
1535065451.9,32983,21.94,74376.8,7.41,-12.07,-12.29,0,*70
1535065453.1,32984,21.94,74372.3,7.41,-12.03,-12.29,0,*73
1535065454.3,32985,21.94,74374.3,7.41,-12.03,-12.29,0,*72
1535065455.52,32986,21.94,74376.8,7.41,-12.07,-12.29,0,*75
1535065456.72,32987,21.94,74376.3,7.41,-12.03,-12.29,0,*70
1535065457.92,32988,21.94,74378.8,7.41,-12.03,-12.29,0,*7F
1535065459.11,32989,21.94,74378.0,7.41,-12.03,-12.21,0,*76
1535065460.34,32990,21.94,74376.8,7.41,-12.07,-12.21,0,*7A
1535065461.54,32991,21.94,74372.5,7.41,-12.03,-12.29,0,*77
1535065462.75,32992,21.94,74378.8,7.41,-12.03,-12.15,0,*7B
1535065463.95,32993,21.94,74378.3,7.41,-12.03,-12.21,0,*7D
1535065465.18,32994,21.94,74374.5,7.41,-12.07,-12.21,0,*7E
1535065466.41,32995,21.94,74374.5,7.41,-11.93,-12.21,0,*71
1535065467.61,32996,21.94,74372.5,7.41,-12.03,-12.21,0,*78
1535065468.8,32997,21.94,74376.5,7.41,-12.03,-12.21,0,*79
1535065470.06,32998,21.94,74376.5,7.43,-11.93,-12.21,0,*7E
1535065471.28,32999,21.94,74376.0,7.41,-12.03,-12.15,0,*70
1535065472.5,33000,21.94,74378.8,7.41,-12.07,-12.29,0,*73
1535065473.7,33001,21.94,74374.0,7.41,-12.03,-12.21,0,*7E
1535065474.93,33002,21.94,74378.0,7.41,-11.93,-12.21,0,*77
1535065476.15,33003,21.94,74374.5,7.43,-12.03,-12.29,0,*76
1535065477.38,33004,21.94,74374.8,7.41,-12.07,-12.21,0,*7F
1535065478.57,33005,21.94,74378.3,7.41,-12.03,-12.29,0,*72
1535065479.85,33006,21.94,74372.3,7.43,-12.07,-12.35,0,*7A
1535065481.1,33007,21.94,74374.3,7.43,-12.07,-12.29,0,*76
1535065482.35,33008,21.94,74372.5,7.41,-12.07,-12.35,0,*76
1535065483.55,33009,21.94,74374.5,7.41,-12.03,-12.29,0,*7E
1535065484.75,33010,21.94,74374.5,7.41,-12.03,-12.29,0,*76
1535065485.94,33011,21.94,74376.3,7.41,-12.03,-12.29,0,*77
1535065487.2,33012,21.94,74374.0,7.41,-12.07,-12.35,0,*7D
1535065488.39,33013,21.94,74374.3,7.41,-12.03,-12.29,0,*75
1535065489.59,33014,21.94,74370.0,7.41,-12.03,-12.21,0,*7A
1535065490.84,33015,21.94,74374.3,7.41,-12.07,-12.35,0,*7A
1535065492.08,33016,21.94,74374.8,7.39,-12.21,-12.39,0,*7E
1535065493.34,33017,21.94,74374.5,7.39,-12.21,-12.35,0,*73
1535065494.59,33018,21.94,74372.5,7.41,-12.07,-12.35,0,*77
1535065495.84,33019,21.94,74378.0,7.43,-12.07,-12.29,0,*79
1535065497.04,33020,21.94,74374.5,7.41,-12.03,-12.29,0,*75
1535065498.26,33021,21.94,74372.5,7.41,-12.07,-12.21,0,*78
1535065499.54,33022,21.94,74370.5,7.39,-12.07,-12.35,0,*71
1535065500.8,33023,21.94,74372.5,7.39,-12.11,-12.21,0,*72
1535065502.08,33024,21.94,74378.0,7.39,-12.07,-12.35,0,*77
1535065503.31,33025,21.94,74372.3,7.37,-12.15,-12.39,0,*77
1535065504.56,33026,21.94,74370.5,7.39,-12.07,-12.25,0,*74
1535065505.76,33027,21.94,74374.8,7.41,-12.03,-12.21,0,*7A
1535065507.01,33028,21.94,74376.3,7.39,-12.07,-12.25,0,*7A
1535065508.24,33029,21.94,74374.0,7.41,-12.07,-12.29,0,*78
1535065509.52,33030,21.94,74378.0,7.39,-12.07,-12.35,0,*72
1535065510.8,33031,21.94,74376.5,7.39,-12.07,-12.35,0,*73
1535065512.02,33032,21.94,74376.8,7.41,-12.03,-12.15,0,*79
1535065513.25,33033,21.94,74374.8,7.41,-11.93,-12.21,0,*75
1535065514.49,33034,21.94,74376.3,7.41,-11.89,-12.15,0,*7E
1535065515.69,33035,21.94,74372.5,7.41,-12.03,-12.29,0,*71
1535065516.88,33036,21.94,74374.3,7.41,-12.03,-12.29,0,*72
1535065518.08,33037,21.94,74372.5,7.41,-12.03,-12.29,0,*73
1535065519.31,33038,21.94,74372.3,7.39,-12.21,-12.39,0,*72
1535065520.57,33039,21.94,74374.8,7.39,-12.07,-12.25,0,*7A
1535065521.85,33040,21.94,74374.5,7.39,-12.07,-12.35,0,*75
1535065523.13,33041,21.94,74374.8,7.39,-12.07,-12.35,0,*74
1535065524.41,33042,21.94,74378.5,7.39,-12.07,-12.35,0,*77
1535065525.66,33043,21.94,74374.5,7.39,-12.07,-12.39,0,*7A
1535065526.92,33044,21.94,74374.5,7.39,-12.11,-12.39,0,*7A
1535065528.2,33045,21.94,74374.0,7.39,-12.07,-12.35,0,*70
1535065529.45,33046,21.94,74374.5,7.39,-12.11,-12.39,0,*78
1535065530.71,33047,21.94,74372.3,7.39,-12.07,-12.29,0,*7F
1535065531.96,33048,21.94,74376.3,7.39,-11.97,-12.21,0,*72
1535065533.19,33049,21.94,74374.3,7.37,-12.11,-12.29,0,*78
1535065534.45,33050,21.94,74376.8,7.39,-12.07,-12.21,0,*71
1535065535.7,33051,21.94,74378.5,7.39,-12.07,-12.21,0,*70
1535065536.95,33052,21.94,74374.0,7.39,-11.97,-12.25,0,*7D
1535065538.15,33053,21.94,74374.0,7.37,-12.03,-12.25,0,*7C
1535065539.38,33054,21.94,74374.8,7.37,-12.11,-12.25,0,*78
1535065540.64,33055,21.94,74378.8,7.39,-11.93,-12.21,0,*7A
1535065541.9,33056,21.94,74378.0,7.39,-12.07,-12.21,0,*77
1535065543.15,33057,21.94,74374.0,7.39,-11.97,-12.25,0,*78
1535065544.35,33058,21.94,74376.0,7.37,-12.03,-12.29,0,*7B
1535065545.61,33059,21.94,74372.8,7.39,-12.07,-12.21,0,*78
1535065546.85,33060,21.94,74376.0,7.41,-11.89,-12.15,0,*7F
1535065548.1,33061,21.94,74374.3,7.39,-11.97,-12.25,0,*7D
1535065549.33,33062,21.94,74378.3,7.37,-12.11,-12.29,0,*71
1535065550.56,33063,21.94,74376.5,7.37,-12.11,-12.29,0,*70
1535065551.79,33064,21.94,74376.3,7.37,-12.15,-12.29,0,*73
1535065553.05,33065,21.94,74376.0,7.39,-11.97,-12.21,0,*7D
1535065554.3,33066,21.94,74378.8,7.39,-12.07,-12.25,0,*70
1535065555.5,33067,21.94,74376.8,7.37,-12.03,-12.29,0,*77
1535065556.73,33068,21.94,74374.5,7.37,-12.15,-12.29,0,*7F
1535065557.99,33069,21.94,74376.5,7.39,-12.07,-12.25,0,*7F
1535065559.24,33070,21.94,74372.0,7.39,-12.07,-12.25,0,*77
1535065560.47,33071,21.94,74374.8,7.37,-12.11,-12.25,0,*7F
1535065561.72,33072,21.94,74374.5,7.39,-11.97,-12.25,0,*7F
1535065562.92,33073,21.94,74372.8,7.37,-12.03,-12.25,0,*7E
1535065564.15,33074,21.94,74376.0,7.37,-12.11,-12.29,0,*76
1535065565.4,33075,21.94,74376.0,7.39,-12.07,-12.25,0,*72
1535065566.6,33076,21.94,74374.5,7.37,-12.03,-12.29,0,*77
1535065567.83,33077,21.94,74376.0,7.37,-11.97,-12.25,0,*74
1535065569.03,33078,21.94,74376.3,7.37,-12.03,-12.29,0,*79
1535065570.27,33079,21.94,74372.0,7.37,-12.11,-12.29,0,*7B
1535065571.5,33080,21.94,74376.0,7.37,-12.11,-12.25,0,*71
1535065572.7,33081,21.94,74374.0,7.37,-12.03,-12.25,0,*73
1535065573.92,33082,21.94,74372.3,7.37,-11.97,-12.25,0,*7E
1535065575.18,33083,21.94,74376.8,7.39,-11.93,-12.25,0,*75
1535065576.38,33084,21.94,74374.3,7.37,-12.03,-12.29,0,*7A
1535065577.59,33085,21.94,74372.5,7.37,-12.03,-12.29,0,*7B
1535065578.82,33086,21.94,74374.8,7.37,-12.11,-12.29,0,*7B
1535065580.05,33087,21.94,74376.5,7.37,-11.97,-12.29,0,*77
1535065581.28,33088,21.94,74372.8,7.37,-11.97,-12.29,0,*78
1535065582.51,33089,21.94,74374.8,7.37,-11.97,-12.29,0,*79
1535065583.71,33090,21.94,74374.0,7.37,-12.03,-12.29,0,*7F
1535065584.91,33091,21.94,74376.5,7.37,-12.03,-12.29,0,*7E
1535065586.14,33092,21.94,74372.5,7.37,-11.97,-12.29,0,*73
1535065587.37,33093,21.94,74374.0,7.37,-12.11,-12.29,0,*7F
1535065588.6,33094,21.94,74374.3,7.37,-11.97,-12.25,0,*79
1535065589.83,33095,21.94,74372.5,7.37,-11.97,-12.25,0,*78
1535065591.03,33096,21.94,74376.3,7.37,-12.03,-12.29,0,*79
1535065592.26,33097,21.94,74374.5,7.37,-11.97,-12.25,0,*7A
1535065593.46,33098,21.94,74376.3,7.37,-12.03,-12.25,0,*7B
1535065594.71,33099,21.94,74376.3,7.37,-11.89,-12.15,0,*78
1535065595.94,33100,21.94,74374.5,7.37,-11.97,-12.25,0,*75
1535065597.17,33101,21.94,74378.3,7.37,-11.97,-12.25,0,*74
1535065598.42,33102,21.94,74376.5,7.35,-11.97,-12.25,0,*75
1535065599.62,33103,21.94,74378.3,7.37,-12.03,-12.29,0,*74
1535065600.85,33104,21.94,74378.5,7.37,-12.11,-12.25,0,*7C
1535065602.08,33105,21.94,74376.3,7.37,-11.97,-12.29,0,*7C
1535065603.31,33106,21.94,74372.5,7.37,-11.97,-12.25,0,*73
1535065604.53,33107,21.94,74376.5,7.37,-11.97,-12.25,0,*72
1535065605.78,33108,21.94,74374.0,7.39,-11.97,-12.25,0,*73
1535065607.03,33109,21.94,74374.3,7.35,-12.11,-12.25,0,*73
1535065608.26,33110,21.94,74376.8,7.37,-12.11,-12.29,0,*75
1535065609.52,33111,21.94,74376.5,7.39,-11.93,-12.21,0,*7B
1535065610.75,33112,21.94,74378.3,7.35,-12.03,-12.25,0,*7A
1535065612.01,33113,21.94,74374.0,7.39,-11.93,-12.25,0,*7D
1535065613.23,33114,21.94,74376.5,7.37,-11.97,-12.25,0,*70
1535065614.46,33115,21.94,74376.0,7.37,-11.97,-12.25,0,*71
1535065615.71,33116,21.94,74374.3,7.37,-11.97,-12.15,0,*71
1535065616.93,33117,21.94,74376.5,7.37,-12.03,-12.15,0,*7E
1535065618.16,33118,21.94,74376.5,7.37,-11.97,-12.25,0,*7C
1535065619.42,33119,21.94,74374.0,7.39,-11.93,-12.21,0,*73
1535065620.62,33120,21.94,74378.3,7.37,-12.03,-12.25,0,*79
1535065621.87,33121,21.94,74374.8,7.35,-11.97,-12.25,0,*74
1535065623.1,33122,21.94,74376.5,7.33,-12.07,-12.29,0,*77
1535065624.33,33123,21.94,74374.8,7.35,-12.03,-12.25,0,*78
1535065625.56,33124,21.94,74378.3,7.33,-12.15,-12.29,0,*72
1535065626.81,33125,21.94,74376.3,7.35,-11.97,-12.25,0,*70
1535065628.06,33126,21.94,74378.3,7.35,-11.97,-12.25,0,*73
1535065629.29,33127,21.94,74376.0,7.37,-11.89,-12.29,0,*73
1535065630.54,33128,21.94,74370.3,7.33,-12.07,-12.35,0,*70
1535065631.77,33129,21.94,74376.3,7.37,-11.97,-12.25,0,*7E
1535065633.0,33130,21.94,74374.8,7.37,-11.89,-12.25,0,*79
1535065634.23,33131,21.94,74376.5,7.37,-11.97,-12.25,0,*77
1535065635.48,33132,21.94,74374.8,7.35,-11.97,-12.25,0,*76
1535065636.68,33133,21.94,74374.0,7.37,-12.03,-12.25,0,*7B
1535065637.93,33134,21.94,74372.3,7.35,-11.97,-12.25,0,*70
1535065639.13,33135,21.94,74374.3,7.33,-12.03,-12.29,0,*75
1535065640.36,33136,21.94,74380.0,7.37,-11.97,-12.25,0,*70
1535065641.56,33137,21.94,74374.0,7.33,-12.03,-12.29,0,*77
1535065642.78,33138,21.94,74374.8,7.33,-12.03,-12.15,0,*77
1535065643.99,33139,21.94,74378.0,7.33,-12.03,-12.21,0,*71
1535065645.19,33140,21.94,74374.0,7.33,-12.03,-12.21,0,*7F
1535065646.46,33141,21.94,74376.3,7.35,-11.97,-12.15,0,*71
1535065647.7,33142,21.94,74376.8,7.33,-11.93,-12.21,0,*77
1535065648.9,33143,21.94,74376.0,7.33,-12.03,-12.21,0,*7C
1535065650.18,33144,21.94,74374.8,7.35,-11.89,-12.15,0,*7B
1535065651.41,33145,21.94,74378.3,7.33,-11.93,-12.21,0,*70
1535065652.65,33146,21.94,74376.5,7.33,-11.89,-12.21,0,*78
1535065653.85,33147,21.94,74378.8,7.33,-12.03,-12.21,0,*78
1535065655.05,33148,21.94,74376.0,7.33,-12.03,-12.21,0,*77
1535065656.29,33149,21.94,74374.0,7.33,-11.93,-12.21,0,*7C
1535065657.52,33150,21.94,74376.5,7.33,-11.93,-12.21,0,*74
1535065658.73,33151,21.94,74372.3,7.33,-12.03,-12.21,0,*7F
1535065659.97,33152,21.94,74374.5,7.33,-11.93,-12.21,0,*76
1535065661.2,33153,21.94,74372.5,7.33,-11.89,-12.21,0,*7C
1535065662.45,33154,21.94,74374.0,7.33,-11.93,-12.15,0,*77
1535065663.7,33155,21.94,74372.5,7.33,-11.89,-12.15,0,*7D
1535065664.95,33156,21.94,74372.5,7.33,-11.89,-12.15,0,*7E
1535065666.19,33157,21.94,74374.8,7.33,-11.93,-12.21,0,*73
1535065667.39,33158,21.94,74372.0,7.33,-12.03,-12.21,0,*76
1535065668.63,33159,21.94,74374.5,7.33,-11.93,-12.21,0,*7D
1535065669.88,33160,21.94,74372.8,7.31,-11.93,-12.25,0,*71
1535065671.14,33161,21.94,74376.3,7.33,-11.93,-12.15,0,*71
1535065672.41,33162,21.94,74374.3,7.35,-11.85,-12.15,0,*73
1535065673.67,33163,21.94,74378.8,7.33,-11.93,-12.15,0,*73
1535065674.93,33164,21.94,74376.3,7.31,-11.93,-12.21,0,*71
1535065676.18,33165,21.94,74376.0,7.31,-11.93,-12.25,0,*74
1535065677.43,33166,21.94,74374.8,7.31,-12.07,-12.21,0,*7D
1535065678.66,33167,21.94,74374.5,7.33,-12.03,-12.15,0,*7D
1535065679.91,33168,21.94,74374.5,7.33,-11.89,-12.07,0,*70
1535065681.16,33169,21.94,74378.5,7.33,-11.89,-12.07,0,*71
1535065682.42,33170,21.94,74376.0,7.33,-11.93,-12.15,0,*71
1535065683.67,33171,21.94,74376.0,7.33,-11.89,-12.15,0,*7B
1535065684.92,33172,21.94,74374.8,7.33,-11.89,-12.15,0,*78
1535065686.17,33173,21.94,74378.0,7.33,-11.89,-12.15,0,*79
1535065687.4,33174,21.94,74374.8,7.33,-11.89,-12.21,0,*79
1535065688.66,33175,21.94,74374.0,7.33,-11.89,-12.07,0,*7C
1535065689.94,33176,21.94,74374.3,7.31,-11.93,-12.11,0,*71
1535065691.22,33177,21.94,74374.5,7.31,-11.93,-12.11,0,*70
1535065692.46,33178,21.94,74374.0,7.29,-11.93,-12.21,0,*75
1535065693.73,33179,21.94,74378.0,7.31,-11.93,-12.11,0,*7E
1535065695.01,33180,21.94,74374.0,7.31,-11.89,-12.11,0,*73
1535065696.28,33181,21.94,74376.0,7.31,-11.89,-12.11,0,*72
1535065697.54,33182,21.94,74374.0,7.33,-11.85,-11.93,0,*76
1535065698.79,33183,21.94,74376.0,7.33,-11.89,-11.93,0,*7B
1535065700.05,33184,21.94,74374.3,7.33,-11.85,-11.89,0,*7B
1535065701.32,33185,21.94,74376.8,7.31,-11.89,-11.93,0,*7F
1535065702.6,33186,21.94,74376.0,7.31,-11.97,-12.11,0,*7A
1535065703.87,33187,21.94,74378.0,7.31,-11.97,-12.11,0,*7B
1535065705.15,33188,21.94,74376.5,7.31,-11.93,-11.97,0,*7D
1535065706.43,33189,21.94,74376.5,7.31,-11.93,-11.97,0,*7C